Location: Burzi?i
(45.0869°N, 16.0577°E)
Time: 02:39:22
(UTC+00:00)

Meteor 2-1 Rocket - Pass Details

Date: 29 October 2020
Orbit: 830 x 906 km, 81.3° (Epoch: 01 December)

Event Time Altitude Azimuth Distance (km) Brightness Sun altitude
Rises 17:19:15 0° 183° (S) 3,364 7.4 -16.7°
Reaches altitude 10° 17:21:39 10° 181° (S) 2,431 6.6 -17.1°
Maximum altitude 17:27:07 73° 97° (E) 870 4.0 -18.1°
Drops below altitude 10° 17:32:39 10° 14° (NNE) 2,456 6.5 -19.0°
Sets 17:35:05 0° 13° (NNE) 3,400 7.2 -19.5°
